Satellite-Ground Cal/Val Site Overpasses Predictions

Prediction of Satellite NPP Overpassing Cal/Val Site: Antarctic Dome C

Ground Cal/Val Site Location: Latitude: -75.10, Longitude: 123.35; Satellite-Ground Site NADIR distance within 100 km.

Table of predicted overpasses for the next 14.0 days since TLE Epoch: 10/24/2014
Interval Starting Time Ending Time Minimum Distance Time Minimum Distance (km)
1 10/25/2014 15:09:56 10/25/2014 15:10:20 10/25/2014 15:10:08 56.98
2 10/26/2014 14:51:04 10/26/2014 14:51:29 10/26/2014 14:51:16 52.40
3 10/27/2014 07:52:44 10/27/2014 07:53:03 10/27/2014 07:52:54 73.82
4 10/28/2014 07:33:48 10/28/2014 07:34:15 10/28/2014 07:34:02 34.28
5 10/30/2014 15:16:09 10/30/2014 15:16:18 10/30/2014 15:16:13 93.87
6 10/31/2014 14:57:07 10/31/2014 14:57:36 10/31/2014 14:57:22 17.77
7 11/02/2014 07:39:52 11/02/2014 07:40:22 11/02/2014 07:40:07 1.62
8 11/05/2014 15:03:11 11/05/2014 15:03:40 11/05/2014 15:03:25 18.15
9 11/06/2014 14:44:28 11/06/2014 14:44:41 11/06/2014 14:44:34 89.13


NCC Satellite Cal/Val Overpasses Prediction Service
